TimePDT,TemperatureF,Dew PointF,Humidity,Sea Level PressureIn,VisibilityMPH,Wind Direction,Wind SpeedMPH,Gust SpeedMPH,PrecipitationIn,Events,Conditions,WindDirDegrees,DateUTC
12:56 AM,55.9,55.0,97,29.98,0.5,SW,4.6,-,N/A,Fog,Fog,230,2013-09-13 07:56:00
1:56 AM,55.9,55.0,97,29.98,0.5,SW,4.6,-,N/A,Fog,Fog,230,2013-09-13 08:56:00
2:56 AM,57.0,55.9,96,29.98,0.5,SW,9.2,-,N/A,Fog,Fog,230,2013-09-13 09:56:00
3:56 AM,57.0,55.9,96,29.98,0.8,SW,9.2,-,N/A,,Overcast,230,2013-09-13 10:56:00
4:56 AM,57.0,55.9,96,29.98,0.8,SW,9.2,-,N/A,,Overcast,230,2013-09-13 11:56:00
5:31 AM,57.2,55.4,94,29.96,3.0,SW,10.4,-,N/A,,Overcast,230,2013-09-13 12:31:00
5:56 AM,57.0,55.9,96,29.98,3.0,SW,9.2,-,N/A,,Overcast,230,2013-09-13 12:56:00
6:56 AM,59.0,57.0,93,29.99,3.0,SSW,8.1,-,N/A,,Overcast,210,2013-09-13 13:56:00
7:56 AM,59.0,57.0,93,29.99,3.0,SSE,4.6,-,N/A,,Overcast,160,2013-09-13 14:56:00
8:42 AM,59.0,57.2,94,29.98,1.5,SSE,5.8,-,N/A,,Overcast,150,2013-09-13 15:42:00
8:48 AM,59.0,57.2,94,29.98,1.5,SSE,4.6,-,0.00,,Light Drizzle,150,2013-09-13 15:48:00
8:56 AM,59.0,57.9,96,29.99,1.5,SSE,4.6,-,0.00,,Light Drizzle,160,2013-09-13 15:56:00
9:24 AM,60.8,57.2,88,29.98,1.5,SSE,3.5,-,0.00,,Overcast,160,2013-09-13 16:24:00
9:52 AM,60.8,57.2,88,29.98,2.5,SE,5.8,-,0.00,,Light Drizzle,140,2013-09-13 16:52:00
9:56 AM,61.0,57.9,90,29.99,2.5,SE,5.8,-,0.00,,Light Drizzle,140,2013-09-13 16:56:00
10:48 AM,62.6,57.2,82,29.98,2.5,Calm,Calm,-,0.00,,Overcast,0,2013-09-13 17:48:00
10:56 AM,61.0,57.9,90,29.99,2.5,Calm,Calm,-,0.00,,Overcast,0,2013-09-13 17:56:00
11:56 AM,59.0,57.0,93,29.98,3.0,NNW,3.5,-,N/A,,Overcast,340,2013-09-13 18:56:00
12:37 PM,57.2,55.4,94,29.96,1.5,West,3.5,-,N/A,,Mostly Cloudy,270,2013-09-13 19:37:00
12:56 PM,57.9,57.0,97,29.97,1.5,Calm,Calm,-,N/A,,Overcast,0,2013-09-13 19:56:00
1:56 PM,57.9,55.9,93,29.97,1.5,West,3.5,-,N/A,,Overcast,270,2013-09-13 20:56:00
2:56 PM,60.1,57.0,90,29.95,3.0,Calm,Calm,-,N/A,,Overcast,0,2013-09-13 21:56:00
3:56 PM,59.0,55.9,90,29.94,1.5,NW,3.5,-,N/A,,Overcast,310,2013-09-13 22:56:00
4:56 PM,59.0,55.9,90,29.93,8.0,Calm,Calm,-,N/A,,Overcast,0,2013-09-13 23:56:00
5:56 PM,59.0,55.9,90,29.92,5.0,Calm,Calm,-,N/A,,Overcast,0,2013-09-14 00:56:00
6:56 PM,59.0,57.0,93,29.91,5.0,Calm,Calm,-,N/A,,Overcast,0,2013-09-14 01:56:00
7:56 PM,60.1,57.0,90,29.91,9.0,SSE,3.5,-,N/A,,Overcast,150,2013-09-14 02:56:00
8:56 PM,59.0,57.0,93,29.92,8.0,SW,6.9,-,N/A,,Overcast,230,2013-09-14 03:56:00
9:56 PM,57.9,55.9,93,29.92,6.0,WSW,3.5,-,N/A,,Overcast,240,2013-09-14 04:56:00
10:56 PM,55.9,55.0,97,29.92,4.0,Calm,Calm,-,0.00,,Light Drizzle,0,2013-09-14 05:56:00
11:56 PM,55.9,55.0,97,29.93,0.5,Calm,Calm,-,0.00,,Light Drizzle,0,2013-09-14 06:56:00